Location: *
(32.3300°N, 34.8500°E)
Time: 15:35:33
(UTC+00:00)

Meteor 2-5 Rocket - Pass Details

Date: 22 October 2019
Orbit: 833 x 912 km, 81.2° (Epoch: 12 November)

Event Time Altitude Azimuth Distance (km) Brightness Sun altitude
Rises 02:32:30 0° 187° (S) 3,444 6.8 -16.9°
Reaches altitude 10° 02:34:54 10° 187° (S) 2,521 6.1 -16.4°
Maximum altitude 02:40:40 88° 279° (W) 895 3.8 -15.2°
Drops below altitude 10° 02:46:34 10° 7° (N) 2,584 6.3 -13.9°
Sets 02:49:04 0° 8° (N) 3,535 7.0 -13.4°
